Location: Apollinopolis Magna
(24.9792°N, 32.8772°E)
Time: 10:55:32
(UTC+00:00)

Meteor 1-19 Rocket - Pass Details

Date: 02 March 2021
Orbit: 807 x 928 km, 81.2° (Epoch: 15 April)

Event Time Altitude Azimuth Distance (km) Brightness Sun altitude
Rises 17:11:59 0° 350° (N) 3,525 7.6 -19.1°
Reaches altitude 10° 17:14:29 10° 349° (N) 2,566 6.8 -19.6°
Maximum altitude 17:20:19 75° 265° (W) 906 4.4 -21.0°
Drops below altitude 10° 17:25:55 10° 181° (S) 2,474 6.6 -22.2°
Sets 17:28:18 0° 179° (S) 3,389 7.3 -22.8°
